Orbital Elements at Epoch 2459200.5 (2020-Dec-17.0) TDB
Reference: JPL 18 (heliocentric ecliptic J2000)
Element | Value | Uncertainty (1-sigma) | Units |
e | .05721954866497822 | 4.1009e-08 | |
a | 1.905954041620588 | 7.8254e-09 | au |
q | 1.796896211582867 | 7.6019e-08 | au |
i | 21.7556148088671 | 5.6697e-06 | deg |
node | 90.66364592114844 | 1.1844e-05 | deg |
peri | 76.01451857913494 | 5.7557e-05 | deg |
M | 61.28845813591229 | 5.428e-05 | deg |
tp | 2459036.877411753010 (2020-Jul-06.37741175) | 0.00014475 | TDB |
period | 961.0966495239868 2.63 | 5.919e-06 1.621e-08 | d yr |
n | .3745721100768599 | 2.3069e-09 | deg/d |
Q | 2.015011871658309 | 8.2731e-09 | au |
|
| | Orbit Determination Parameters
Additional Information
|